[TLELIST] Archives

 

[list_settings.list_name] Current TLEs

June 29th 2011 PST

HST 1 20580U 90037B 11177.82330943 +.00000847 +00000-0 +51368-4 0 07863 2 20580 028.4725 313.5072 0003509 222.3983 137.6438 15.01406378961106 ISS (ZARYA) 1 25544U 98067A 11178.84164315 +.00006248 +00000-0 +75414-4 0 06149 2 25544 051.6415 106.9878 0011238 296.9546 118.5505 15.62197312722574 CXO 1 25867U 99040B 11176.87500000 -.00000798 +00000-0 +00000-0 0 06224 2 25867 069.4396 031.0885 8620100 276.7614 352.7601 00.37802170007809 ____________________________________________________________________ These 2-Line ...Continue Reading

[list_settings.list_name] Current TLEs

June 28th 2011 PST

HST 1 20580U 90037B 11175.03142508 +.00000775 +00000-0 +45906-4 0 07852 2 20580 028.4725 331.7433 0003535 193.2905 166.7641 15.01402175960680 ISS (ZARYA) 1 25544U 98067A 11177.87999507 +.00005015 +00000-0 +61773-4 0 06076 2 25544 051.6407 111.8411 0011281 292.5415 111.1513 15.62182172722428 CXO 1 25867U 99040B 11176.87500000 -.00000798 +00000-0 +00000-0 0 06224 2 25867 069.4396 031.0885 8620100 276.7614 352.7601 00.37802170007809 ____________________________________________________________________ These 2-Line ...Continue Reading

[list_settings.list_name] Current TLEs

June 27th 2011 PST

HST 1 20580U 90037B 11175.03142508 +.00000775 +00000-0 +45906-4 0 07852 2 20580 028.4725 331.7433 0003535 193.2905 166.7641 15.01402175960680 ISS (ZARYA) 1 25544U 98067A 11176.86731656 +.00011327 +00000-0 +13182-3 0 06010 2 25544 051.6418 116.9474 0011156 288.5621 176.2010 15.62179605722263 CXO 1 25867U 99040B 11176.87500000 -.00000798 +00000-0 +00000-0 0 06224 2 25867 069.4396 031.0885 8620100 276.7614 352.7601 00.37802170007809 ____________________________________________________________________ These 2-Line ...Continue Reading

[list_settings.list_name] Current TLEs

June 26th 2011 PST

HST 1 20580U 90037B 11175.03142508 +.00000775 +00000-0 +45906-4 0 07852 2 20580 028.4725 331.7433 0003535 193.2905 166.7641 15.01402175960680 ISS (ZARYA) 1 25544U 98067A 11175.96790450 -.00022115 +00000-0 -24086-3 0 05964 2 25544 051.6416 121.4929 0011246 286.2408 157.0189 15.62137929722127 CXO 1 25867U 99040B 11176.87500000 -.00000798 +00000-0 +00000-0 0 06224 2 25867 069.4396 031.0885 8620100 276.7614 352.7601 00.37802170007809 ____________________________________________________________________ These 2-Line ...Continue Reading

[list_settings.list_name] Current TLEs

June 25th 2011 PST

HST 1 20580U 90037B 11172.77132387 .00000745 00000-0 43704-4 0 7844 2 20580 028.4728 346.5038 0003524 168.1964 191.8764 15.01399279960340 ISS (ZARYA) 1 25544U 98067A 11174.75007458 +.03157586 +00000-0 +30034-1 0 05903 2 25544 051.6474 127.6387 0012310 270.2236 159.7479 15.62461408721933 CXO 1 25867U 99040B 11176.87500000 -.00000798 00000-0 00000+0 0 6212 2 25867 069.4396 031.0885 8620099 276.7614 352.7601 00.37802170 7806 ____________________________________________________________________ These 2-Line ...Continue Reading

[list_settings.list_name] Current TLEs

June 24th 2011 PST

HST 1 20580U 90037B 11172.77132387 .00000745 00000-0 43704-4 0 7844 2 20580 028.4728 346.5038 0003524 168.1964 191.8764 15.01399279960340 ISS (ZARYA) 1 25544U 98067A 11173.84950508 +.00008727 +00000-0 +10329-3 0 05877 2 25544 051.6425 132.1734 0011045 275.9893 126.1217 15.62102585721791 CXO 1 25867U 99040B 11176.87500000 -.00000798 00000-0 00000+0 0 6212 2 25867 069.4396 031.0885 8620099 276.7614 352.7601 00.37802170 7806 ____________________________________________________________________ These 2-Line ...Continue Reading

[list_settings.list_name] Current TLEs

June 23rd 2011 PST

HST 1 20580U 90037B 11172.77132387 .00000745 00000-0 43704-4 0 7844 2 20580 028.4728 346.5038 0003524 168.1964 191.8764 15.01399279960340 ISS (ZARYA) 1 25544U 98067A 11173.35887660 .00043735 00000-0 49091-3 0 5833 2 25544 051.6430 134.6526 0011386 274.8450 246.3553 15.62115050721719 CXO 1 25867U 99040B 11176.87500000 -.00000798 00000-0 00000+0 0 6212 2 25867 069.4396 031.0885 8620099 276.7614 352.7601 00.37802170 7806 ____________________________________________________________________ These 2-Line ...Continue Reading

[list_settings.list_name] Current TLEs

June 22nd 2011 PST

HST 1 20580U 90037B 11172.77132387 .00000745 00000-0 43704-4 0 7844 2 20580 028.4728 346.5038 0003524 168.1964 191.8764 15.01399279960340 ISS (ZARYA) 1 25544U 98067A 11173.35887660 .00043735 00000-0 49091-3 0 5833 2 25544 051.6430 134.6526 0011386 274.8450 246.3553 15.62115050721719 CXO 1 25867U 99040B 11176.87500000 -.00000798 00000-0 00000+0 0 6212 2 25867 069.4396 031.0885 8620099 276.7614 352.7601 00.37802170 7806 ____________________________________________________________________ These 2-Line ...Continue Reading

[list_settings.list_name] Current TLEs

June 21st 2011 PST

HST 1 20580U 90037B 11169.97942646 .00000698 00000-0 40095-4 0 7835 2 20580 028.4730 004.7412 0003546 140.6521 219.4325 15.01395870959925 ISS (ZARYA) 1 25544U 98067A 11172.39511841 .00042702 00000-0 47989-3 0 5771 2 25544 051.6406 139.5138 0011262 272.0083 225.8676 15.62096393721569 CXO 1 25867U 99040B 11174.25000000 -.00000727 00000-0 00000+0 0 6208 2 25867 069.4185 031.2793 8621140 276.7435 355.4166 00.37805307 7790 ____________________________________________________________________ These 2-Line ...Continue Reading

[list_settings.list_name] Current TLEs

June 20th 2011 PST

HST 1 20580U 90037B 11169.97942646 .00000698 00000-0 40095-4 0 7835 2 20580 028.4730 004.7412 0003546 140.6521 219.4325 15.01395870959925 ISS (ZARYA) 1 25544U 98067A 11171.43658999 .00025267 00000-0 28739-3 0 5714 2 25544 051.6422 144.3504 0011319 267.8477 236.1966 15.62062756721417 CXO 1 25867U 99040B 11171.58333333 -.00000667 00000-0 00000+0 0 6190 2 25867 069.3986 031.4648 8620345 276.7163 352.4513 00.37803401 7788 ____________________________________________________________________ These 2-Line ...Continue Reading
  • This mailing list is a public mailing list - anyone may join or leave, at any time.
  • This mailing list is announce-only.

International Space Station (ISS) / Hubble Space Telescope (HST) / Chandra X-Ray Observatory Orbital Data via EMAIL

Privacy Policy:

Private list